User: anonymous   Login
Location: Cutler
(25.6150°N, 80.3110°W)
Time: 14:33:32
(UTC-04:00)
Language:

Cosmos 2360 Rocket - Orbit

View from above orbital plane
View from above orbital plane
View from above satellite
View from above satellite

Ground track
Ground track

The orbit data is extracted from the following two-line orbital elements,

1 25407U 98045B   14296.18005181 -.00000169  00000-0 -61900-4 0  5994
2 25407 071.0116 275.5406 0009882 250.4098 187.2362 14.15675327839189
Epoch (UTC): 23 October 2014 04:19:16
Eccentricity: 0.0009882
inclination: 71.0116°
perigee height: 833 km
apogee height: 847 km
right ascension of ascending node: 275.5406°
argument of perigee: 250.4098°
revolutions per day: 14.15675327
mean anomaly at epoch: 187.2362°
orbit number at epoch: 83918

The dashed part of the orbit path shows where the satellite is in the earth's shadow,  

DLR